Regional Weather Roundup
Issued by NWS Bismarck, ND

Home | Current Version | Previous Version | Text Only | Print | Product List | Glossary On
Versions: 1 2 3 4 5 6 7 8 9 10 11 12 13 14 15 16 17 18 19 20 21 22 23 24 25 26 27 28 29 30 31 32 33 34 35 36 37 38 39 40 41 42 43 44 45 46 47 48 49 50
000
ASUS43 KBIS 181710
RWRBIS

NWR BROADCAST TEXT
NATIONAL WEATHER SERVICE BISMARCK ND
1200 PM CDT SAT APR 18 2015

NOTE: "FAIR" INDICATES FEW OR NO CLOUDS BELOW 12,000 FEET WITH NO
SIGNIFICANT WEATHER AND/OR OBSTRUCTIONS TO VISIBILITY.


CITY           SKY/WX    TMP DP  RH WIND       PRES   REMARKS
WILLISTON      SUNNY     67  37  33 S16       29.91F
MINOT          SUNNY     64  25  22 S9        29.95F
MINOT AFB      SUNNY     63  28  26 S13       29.95F
BISMARCK       CLOUDY    53  30  41 CALM      30.01F
DICKINSON      SUNNY     66  32  28 SW15      29.94F
GARRISON         N/A     60  29  30 SE8       29.96F
HETTINGER ARPT CLOUDY    52  40  63 CALM      29.99F
JAMESTOWN      PTSUNNY   57  27  31 SE9       30.01F
BEACH          FAIR      64  34  32 S12G21    29.96F
CARRINGTON     FAIR      63  28  27 S16G22    30.01F
CROSBY         FAIR      66  34  30 SW14G23   29.90S
HARVEY           N/A    N/A N/A N/A MISG        N/A
HAZEN          FAIR      64  28  25 S10G18    29.96F
LINTON         CLOUDY    55  32  41 SE6       30.00F
MANDAN         PTSUNNY   54  30  40 S6        30.01F
OAKES            N/A     64  32  29 E12G18    30.00F
RUGBY          FAIR      59  30  33 S12G22    29.99F
STANLEY        FAIR      63  30  29 S13       29.95S
WATFORD CITY   FAIR      66  34  30 SW14G22   29.92S
$$

CITY           SKY/WX    TMP DP  RH WIND       PRES   REMARKS
GRAND FORKS    MOSUNNY   60  31  33 S7        30.05F
GRAND FORKS AF SUNNY     59  30  34 SE9       30.05F
DEVILS LAKE    SUNNY     57  34  41 SE10      30.01F
FARGO          MOSUNNY   66  29  24 SE13      30.03F
CANDO          FAIR      57  30  35 S15       30.02F
CAVALIER       FAIR      55  32  41 S10       30.06F
GRAFTON        FAIR      59  32  36 SE12G17   30.07F
GWINNER        SUNNY     64  32  29 SE15      30.02F
LANGDON        FAIR      59  28  31 S15G22    30.03F
ROLLA          FAIR      57  27  30 S16G22    30.01F
WALHALLA       FAIR      55  32  41 SE20      30.05F
$$

CITY           SKY/WX    TMP DP  RH WIND       PRES   REMARKS
ABERDEEN       CLOUDY    71  22  15 SE12G23   29.97F
MOBRIDGE       PTSUNNY   64  26  23 S7        29.96F
BUFFALO          N/A     57  41  55 S10       29.92F
RAPID CITY     LGT RAIN  50  44  80 NE13      29.97F
GLASGOW        MOSUNNY   55  36  48 N29G37    30.00R
SIDNEY         SUNNY     64  39  39 S13G18    29.92F
WOLF POINT     CLOUDY    63  34  33 NW15      29.93R
GLENDIVE       SUNNY     64  39  39 S12G20    29.95F
MILES CITY     SUNNY     63  36  36 W8        29.95S
BAKER          SUNNY     63  41  44 S10       29.97F
$$

CITY           SKY/WX    TMP DP  RH WIND       PRES   REMARKS
BILLINGS       MOSUNNY   63  26  24 N17G26    30.02S
GREAT FALLS    LGT SNOW  33  32  96 N18       30.26R VSB 1
REGINA         PTSUNNY   54  39  58 NW16G28   29.96R
ESTEVAN        MOSUNNY   66  34  30 S17       29.89F
$$




USA.gov is the U.S. government's official web portal to all federal, state and local government web resources and services.